GW2041 Weather Reports


time (UTC)temp
C
wind
direction
speed
KPH
gust
KPH
rain 1hr
cm
rain 24hr
cm
rain mn
cm
humidity
%
barometer
mb
20260901095247 18 293 4.8 9.7 0.00 0.00 0.00 83 1017.3
20260901094243 18 270 4.8 11.3 0.00 0.00 0.00 84 1017.3
20260901093253 18 180 4.8 12.9 0.00 0.00 0.00 84 1017.4
20260901092236 18 90 4.8 0.0 0.00 0.00 0.00 86 1017.3
20260901091223 18 90 4.8 6.4 0.00 0.00 0.00 86 1017.3
20260901090221 18 180 4.8 11.3 0.00 0.00 0.00 85 1017.3
20260901085223 18 225 4.8 9.7 0.00 0.00 0.00 86 1017.2
20260901084221 17 180 3.2 9.7 0.00 0.00 0.00 86 1017.2
20260901081703 17 225 3.2 6.4 0.00 0.00 0.00 86 1016.8
20260901080220 17 225 6.4 11.3 0.00 0.00 0.00 87 1016.8
20260901075219 17 225 6.4 12.9 0.00 0.00 0.00 87 1016.6
20260901074225 17 338 3.2 8.0 0.00 0.00 0.00 87 1016.6
20260901073219 17 225 3.2 6.4 0.00 0.00 0.00 88 1016.5
20260901072218 16 248 4.8 6.4 0.00 0.00 0.00 88 1016.5
20260901071223 16 293 3.2 8.0 0.00 0.00 0.00 88 1016.6
20260901070218 16 225 3.2 8.0 0.00 0.00 0.00 88 1016.6
20260901065216 16 158 3.2 8.0 0.00 0.00 0.00 88 1016.5
20260901064659 15 180 3.2 6.4 0.00 0.00 0.00 88 1016.5
20260901063214 15 180 3.2 6.4 0.00 0.00 0.00 88 1016.1
20260901062214 15 338 1.6 6.4 0.00 0.00 0.00 88 1016.1
20260901061215 15 135 3.2 8.0 0.00 0.00 0.00 88 1016.1
20260901060215 15 225 3.2 4.8 0.00 0.00 0.00 88 1016.1
20260901055214 15 135 3.2 8.0 0.00 0.00 0.00 88 1016.0
20260901054214 15 180 3.2 4.8 0.00 0.00 0.00 88 1016.0
20260901053212 15 180 1.6 3.2 0.00 0.00 0.00 88 1016.0
20260901052211 15 158 1.6 4.8 0.00 0.00 0.00 88 1016.0
20260901051213 15 180 0.0 3.2 0.00 0.00 0.00 88 1015.6
20260901050212 15 248 0.0 3.2 0.00 0.00 0.00 88 1015.6
20260901045212 15 158 0.0 6.4 0.00 0.00 0.00 88 1016.1
20260901044214 15 248 0.0 1.6 0.00 0.00 0.00 88 1016.1
20260901043210 15 180 0.0 3.2 0.00 0.00 0.00 87 1016.0
20260901042648 15 180 3.2 11.3 0.00 0.00 0.00 88 1016.0
20260901041208 15 248 3.2 3.2 0.00 0.00 0.00 87 1015.3
20260901040638 15 248 3.2 4.8 0.00 0.00 0.00 87 1015.3
20260901035204 15 248 3.2 6.4 0.00 0.00 0.00 87 1015.3
20260901034212 15 0 3.2 0.0 0.00 0.00 0.00 87 1015.1
20260901033226 15 135 3.2 8.0 0.00 0.00 0.00 87 1015.1
20260901032231 15 0 3.2 8.0 0.00 0.00 0.00 87 1015.1
20260901031223 15 270 1.6 6.4 0.00 0.00 0.00 87 1015.1
20260901030217 15 225 3.2 4.8 0.00 0.00 0.00 86 1015.1
20260901025217 15 90 1.6 4.8 0.00 0.00 0.00 86 1015.0
20260901024216 15 203 1.6 4.8 0.00 0.00 0.00 86 1015.0
20260901023213 15 180 1.6 6.4 0.00 0.00 0.00 86 1015.0
20260901022214 15 203 1.6 4.8 0.00 0.00 0.00 86 1015.0
20260901021212 15 180 1.6 4.8 0.00 0.00 0.00 86 1014.9
20260901020211 15 225 1.6 6.4 0.00 0.00 0.00 86 1014.9
20260901015211 15 180 1.6 4.8 0.00 0.00 0.00 85 1015.1
20260901014208 15 203 1.6 4.8 0.00 0.00 0.00 85 1015.1
20260901013209 15 248 3.2 3.2 0.00 0.00 0.00 85 1015.1
20260901012208 15 158 1.6 4.8 0.00 0.00 0.00 85 1015.1
20260901011210 16 158 3.2 3.2 0.00 0.00 0.00 85 1015.0
20260901010209 16 158 3.2 9.7 0.00 0.00 0.00 85 1015.0
20260901005209 15 225 1.6 6.4 0.00 0.00 0.00 85 1014.6
20260901004209 15 248 3.2 4.8 0.00 0.00 0.00 85 1014.6
20260901003215 15 158 1.6 9.7 0.00 0.00 0.00 84 1014.8
20260901002209 15 270 3.2 9.7 0.00 0.00 0.00 84 1014.8
20260901001208 15 293 3.2 6.4 0.00 0.00 0.00 84 1014.9
20260901000207 15 225 3.2 6.4 0.00 0.00 0.00 84 1014.9
20260831235208 15 248 3.2 6.4 0.00 0.00 0.00 84 1014.9
20260831234643 15 248 3.2 6.4 0.00 0.00 0.00 84 1014.9
20260831233647 15 225 3.2 4.8 0.00 0.00 0.00 84 1014.8
20260831232208 15 180 1.6 4.8 0.00 0.00 0.00 83 1014.8
20260831231659 15 158 1.6 6.4 0.00 0.00 0.00 83 1014.8
20260831230643 15 135 1.6 4.8 0.00 0.00 0.00 83 1014.8
20260831225204 15 158 1.6 4.8 0.00 0.00 0.00 83 1015.0
20260831224204 15 180 3.2 6.4 0.00 0.00 0.00 83 1015.0
20260831223205 16 180 3.2 6.4 0.00 0.00 0.00 83 1015.4
20260831222206 16 225 3.2 9.7 0.00 0.00 0.00 82 1015.4
20260831221652 16 135 3.2 6.4 0.00 0.00 0.00 82 1015.3
20260831220151 16 135 3.2 6.4 0.00 0.00 0.00 82 1015.3
20260831215157 16 23 1.6 3.2 0.00 0.00 0.00 82 1015.2